Fort Lauderdale, FL

7:15 PM EST on December 15, 2019 (GMT -0500)
Fort Lauderdale Executive

Weather History for KFXE - October, 2019

Change the Weather History Date:

Wednesday, October 2, 2019

  Actual Average Record
Temperature  
Mean Temperature 82 °F -  
Max Temperature 86 °F 88 °F 97 °F (1980)
Min Temperature 79 °F 73 °F 60 °F (1954)
Cooling Degree Days 16    
Growing Degree Days 32 (Base 50)    
Moisture  
Dew Point 73 °F    
Average Humidity 76    
Maximum Humidity 82    
Minimum Humidity 69    
Precipitation  
Precipitation 0.00 in - - ()
Sea Level Pressure  
Sea Level Pressure 29.90 in    
Wind  
Wind Speed 12 mph ()    
Max Wind Speed 20 mph    
Max Gust Speed 25 mph    
Visibility 10.0 miles    
Events      
Averages and records for this station are not official NWS values.
T = Trace of Precipitation, MM = Missing Value Source: Averaged Metar Reports

Daily Weather History Graph

Daily Weather History Graph

Search for Another Location

Airport or City:

Astronomy

Oct. 02, 2019 Rise Set
Actual Time 7:13 AM EDT 7:06 PM EDT
Civil Twilight 6:50 AM EDT 7:29 PM EDT
Nautical Twilight 6:23 AM EDT 7:56 PM EDT
Astronomical Twilight 5:56 AM EDT 8:22 PM EDT
Moon 11:14 AM EDT (10/2) 10:23 PM EDT (10/2)
Length of Visible Light 12h 39m
Length of Day
11h 52m
Waxing Crescent, 20% of the Moon is Illuminated
Oct 2
Waxing Crescent
Oct 5
First Quarter
Oct 13
Full
Oct 21
Last Quarter
Oct 27
New

Hourly Weather History & Observations

Time (EDT) Temp. Heat Index Dew Point Humidity Pressure Visibility Wind Dir Wind Speed Gust Speed Precip Events Conditions
12:53 AM 79.0 °F - 73.0 °F 82% 29.90 in 10.0 mi ENE 16.1 mph - 0.00 in   Scattered Clouds
1:53 AM 79.0 °F - 72.0 °F 79% 29.89 in 10.0 mi East 16.1 mph - 0.00 in   Scattered Clouds
2:53 AM 80.1 °F 84.2 °F 73.0 °F 79% 29.87 in 10.0 mi ENE 12.7 mph - 0.00 in   Mostly Cloudy
3:53 AM 79.0 °F - 73.0 °F 82% 29.86 in 10.0 mi ENE 15.0 mph - N/A   Scattered Clouds
4:53 AM 79.0 °F - 72.0 °F 79% 29.86 in 10.0 mi ENE 12.7 mph - N/A   Scattered Clouds
5:53 AM 79.0 °F - 72.0 °F 79% 29.86 in 10.0 mi ENE 11.5 mph - N/A   Scattered Clouds
6:53 AM 80.1 °F 84.2 °F 73.0 °F 79% 29.88 in 10.0 mi ENE 12.7 mph - N/A   Scattered Clouds
7:53 AM 80.1 °F 84.2 °F 73.0 °F 79% 29.90 in 10.0 mi ENE 10.4 mph - N/A   Scattered Clouds
8:53 AM 81.0 °F 86.2 °F 73.9 °F 79% 29.91 in 10.0 mi ENE 10.4 mph - N/A   Overcast
9:53 AM 84.0 °F 91.9 °F 75.0 °F 74% 29.92 in 10.0 mi NE 15.0 mph 23.0 mph N/A   Mostly Cloudy
10:53 AM 84.9 °F 92.1 °F 73.9 °F 69% 29.93 in 10.0 mi ENE 19.6 mph 25.3 mph N/A   Mostly Cloudy
11:53 AM 84.0 °F 91.2 °F 73.9 °F 72% 29.94 in 10.0 mi ENE 17.3 mph 24.2 mph N/A   Mostly Cloudy
12:53 PM 84.9 °F 92.1 °F 73.9 °F 69% 29.92 in 10.0 mi ENE 16.1 mph 25.3 mph 0.00 in   Overcast
1:53 PM 84.9 °F 92.1 °F 73.9 °F 69% 29.91 in 10.0 mi NE 12.7 mph - N/A   Mostly Cloudy
2:53 PM 84.9 °F 92.1 °F 73.9 °F 69% 29.89 in 10.0 mi ENE 13.8 mph - N/A   Overcast
3:53 PM 82.9 °F 90.2 °F 75.0 °F 77% 29.89 in 10.0 mi NE 15.0 mph 21.9 mph N/A   Mostly Cloudy
4:53 PM 82.9 °F 89.4 °F 73.9 °F 74% 29.88 in 10.0 mi ENE 17.3 mph 21.9 mph N/A   Scattered Clouds
5:53 PM 82.0 °F 87.4 °F 73.0 °F 74% 29.89 in 10.0 mi ENE 15.0 mph - N/A   Scattered Clouds
6:53 PM 80.1 °F 84.5 °F 73.9 °F 81% 29.89 in 10.0 mi NE 11.5 mph - N/A   Scattered Clouds
7:53 PM 82.0 °F 87.4 °F 73.0 °F 74% 29.90 in 10.0 mi ENE 12.7 mph - N/A   Mostly Cloudy
8:53 PM 81.0 °F 85.2 °F 72.0 °F 74% 29.91 in 10.0 mi ENE 11.5 mph - N/A   Mostly Cloudy
9:53 PM 81.0 °F 85.8 °F 73.0 °F 77% 29.94 in 10.0 mi ENE 10.4 mph - 0.00 in   Scattered Clouds
10:53 PM 80.1 °F 84.2 °F 73.0 °F 79% 29.94 in 10.0 mi ENE 13.8 mph - N/A   Scattered Clouds
11:53 PM 80.1 °F 84.2 °F 73.0 °F 79% 29.94 in 10.0 mi ENE 11.5 mph - N/A   Clear